Location: CNYAC Observatory
(43.2150°N, 74.9500°W)
Time: 04:48:10
(UTC-05:00)

Daily predictions for brighter satellites

Satellite Brightness Start Highest point End
(mag) Time Altitude Azimuth Time Altitude Azimuth Time Altitude Azimuth
USA 234 4.5 04:08:08 10° ENE 04:13:41 30° NNE 04:14:08 30° N
COSMO-SKYMED 1 4.0 04:34:39 10° SE 04:38:37 36° ENE 04:38:53 36° ENE
Cosmos 2233 Rocket 4.3 04:34:47 10° S 04:40:57 65° E 04:47:12 10° NNE
SL-8 R/B 4.4 04:47:33 50° NE 04:47:33 50° NE 04:51:29 10° E
SL-16 R/B 2.4 04:57:16 54° SSW 04:57:16 54° SSW 05:01:49 10° SSE
Cosmos 2346 Rocket 4.4 04:51:01 10° N 04:57:11 80° E 05:03:15 10° S
SeaSat 1 3.6 04:54:21 10° NNE 04:57:03 31° N 04:57:03 31° N
Cosmos 1816 Rocket 4.3 04:59:05 46° NNW 05:00:59 70° W 05:07:10 10° S
Cosmos 2297 Rocket 3.2 05:05:23 32° NNW 05:05:23 32° NNW 05:08:49 10° NNE
ISS -0.7 05:09:16 16° SSE 05:09:16 16° SSE 05:10:04 10° SSE
Cosmos 968 Rocket 3.3 05:06:47 54° SSW 05:08:00 83° WNW 05:13:18 10° NNE
USA 229 DEB 4.1 05:13:19 43° WSW 05:13:40 43° WSW 05:20:23 10° S
USA 229 4.1 05:13:22 43° WSW 05:13:46 43° WSW 05:20:30 10° S
Cosmos 2227 Rocket 3.7 05:18:50 21° NNW 05:18:50 21° NNW 05:21:27 10° N
ATLAS CENTAUR R/B 4.3 05:16:30 13° N 05:17:44 14° NNE 05:21:10 10° NE
Cosmos 773 Rocket 4.1 05:17:12 23° NNW 05:20:33 77° ENE 05:25:51 10° SSE
Meteor 1-28 Rocket 3.4 05:21:02 10° SSE 05:24:46 70° ENE 05:26:20 33° N
Meteor 1-16 Rocket 4.0 05:19:25 10° S 05:24:50 85° W 05:30:11 10° N
Feng Yun 1-1 Rocket 4.4 05:20:30 10° N 05:25:41 46° WNW 05:26:07 45° W
SKYMED 2 3.4 05:22:17 10° S 05:26:36 69° WSW 05:27:32 52° NW
Meteor 1-11 4.2 05:20:50 10° N 05:26:42 87° W 05:32:30 10° S
Cosmos 2058 2.9 05:24:24 25° N 05:26:43 81° E 05:30:51 10° S
Cosmos 1626 3.9 05:23:21 10° N 05:26:46 32° ENE 05:30:09 10° SE
Cosmos 1271 Rocket 2.6 05:23:32 10° S 05:27:21 85° E 05:31:09 10° N
NOSS 3-1 (A) 4.0 05:22:15 22° NW 05:27:35 86° NE 05:36:00 10° SE
NOAA 6 3.9 05:23:12 10° N 05:28:22 64° WNW 05:33:29 10° SSW
PSLV R/B 4.0 05:29:06 44° S 05:29:13 44° SSE 05:32:29 10° E
Cosmos 1464 Rocket 4.2 05:27:59 10° S 05:34:18 77° E 05:40:34 10° N
ATLAS 2AS CENTAUR R/B 4.1 05:28:41 11° NNW 05:36:01 41° NE 05:43:13 10° ESE
Cosmos 1340 Rocket 2.6 05:34:58 35° NNW 05:36:32 78° W 05:40:29 10° S
Cosmos 1943 4.0 05:31:46 10° NNW 05:37:19 49° ENE 05:42:49 10° SE
Cosmos 292 Rocket 4.1 05:33:20 13° NNW 05:37:33 64° ENE 05:42:18 10° SSE
Cosmos 1184 Rocket 4.3 05:35:06 10° N 05:38:12 36° ENE 05:41:17 10° SE
Cosmos 2221 2.5 05:34:19 10° S 05:38:39 81° E 05:42:59 10° N
SL-14 R/B 3.5 05:41:33 46° W 05:41:49 47° W 05:45:42 10° SSW
Cosmos 1777 Rocket 3.9 05:43:13 10° SSW 05:48:25 70° WNW 05:53:37 10° NNE
Cosmos 1356 Rocket 3.5 05:45:27 10° N 05:49:34 78° E 05:53:44 10° SSE
CSL-04 Debris 4.4 05:47:00 10° NNE 05:52:31 74° ESE 05:57:58 10° S
Helios 1B rocket 4.3 05:50:10 10° SE 05:53:44 29° ENE 05:57:19 10° N
Cosmos 1072 Rocket 4.4 05:48:57 10° SSW 05:55:05 69° W 06:01:13 10° N
USA 234 3.6 05:49:29 10° ESE 05:55:55 61° NNE 06:01:28 15° NW
Tiangong 2 3.2 05:53:42 11° SSW 05:56:04 24° SSE 05:58:41 10° E
ERBS 3.6 05:59:49 24° WSW 05:59:58 24° SW 06:02:48 10° S
Cosmos 2151 3.7 05:59:21 27° WNW 06:00:21 31° W 06:04:05 10° SSW
Cosmos 1603 3.8 05:56:06 16° NW 06:00:25 54° WSW 06:05:54 10° S
Meteor 2-1 Rocket 4.2 05:55:01 10° SSW 06:00:36 67° WNW 06:06:21 10° N
Cosmos 2263 Rocket 3.3 05:56:16 10° S 06:01:39 47° ESE 06:07:06 10° NE
NOSS 3-1 (C) 4.4 06:01:36 17° NW 06:07:28 48° WSW 06:15:20 10° S
DELTA 2 R/B (1) 4.3 06:04:53 11° WSW 06:09:59 50° SSE 06:15:21 10° E
SJ-12 4.1 06:09:12 10° NNE 06:13:18 76° ESE 06:17:22 10° S
Cosmos 1908 3.4 06:10:28 10° S 06:14:16 73° E 06:18:06 10° NNE
COSMO-SKYMED 1 3.8 06:11:34 10° SW 06:14:52 21° W 06:16:07 19° WNW
CZ-2C R/B 2.4 06:12:49 10° NNE 06:17:25 75° ESE 06:21:59 10° S
CSL-04 Rocket 3.6 06:13:21 10° N 06:18:33 57° WNW 06:23:42 10° SSW
IDEFIX/ARIANE 42P 2.8 06:13:24 10° NNE 06:18:42 78° ESE 06:23:58 10° S
Cosmos 1805 Rocket 3.9 06:16:02 10° NNW 06:20:15 44° W 06:24:24 10° SSW
CZ-4 R/B 1.4 06:17:58 10° NNE 06:22:03 87° WNW 06:26:10 10° SSW
TELKOM 3 3.7 06:21:13 24° WNW 06:22:11 35° NNW 06:24:14 10° NE
Ariane Rocket 3.3 06:17:29 10° N 06:22:18 43° WNW 06:27:05 10° SW
EP 2 4.3 06:20:45 10° SSW 06:23:20 80° SE 06:26:07 10° NE
Cosmos 923 Rocket 4.4 06:18:35 10° NNW 06:23:31 44° WSW 06:28:28 10° S
Cosmos 2228 Rocket 3.2 06:22:47 10° S 06:27:12 78° E 06:31:38 10° N
Meteor 1-29 4.0 06:23:57 10° SSE 06:27:19 48° ENE 06:30:43 10° N
Cosmos 1726 4.3 06:24:47 10° SSE 06:28:02 30° E 06:31:20 10° NNE
SL-8 R/B 4.1 06:25:32 15° WNW 06:29:19 51° SW 06:33:58 10° SE
Iridium 4 Rocket 4.4 06:25:17 10° N 06:29:25 44° E 06:33:48 10° SSE
Cosmos 1680 Rocket 3.8 06:26:29 10° NNW 06:31:36 49° WSW 06:36:41 10° S
Cosmos 1300 4.4 06:31:17 10° SSE 06:34:48 37° E 06:38:22 10° NNE
CZ-3 Stage 3 4.3 06:30:03 10° SW 06:35:09 28° S 06:52:01 10° SE
Cosmos 1898 Rocket 4.0 06:30:31 10° S 06:35:43 67° ESE 06:41:00 10° NNE
SeaSat 1 4.3 06:34:39 10° NNW 06:35:43 11° NW 06:36:47 10° NW
AQUARIUS 4.1 06:33:09 10° N 06:37:41 77° WNW 06:42:09 10° SSW
Sich 1 3.5 06:36:55 10° NNW 06:41:00 40° W 06:45:02 10° SSW
Cosmos 1633 Rocket 3.5 06:42:05 10° NNW 06:46:10 40° W 06:50:14 10° SSW
PAYLOAD A 4.4 06:41:58 10° N 06:46:38 39° WNW 06:51:07 10° SW
Coronas F rocket 2.3 06:44:53 10° NW 06:46:51 22° W 06:48:48 10° SSW
MSX 3.9 06:44:16 10° NNE 06:50:04 90° WNW 06:55:51 10° SSW
Cosmos 1328 Rocket 3.5 06:46:02 10° SSW 06:50:17 62° W 06:54:39 10° N
Cosmos 2034 Rocket 4.4 06:44:35 10° SW 06:50:18 39° WNW 06:56:08 10° N
Nadezhda 4 Rocket 4.3 06:46:07 10° NNW 06:52:10 49° W 06:58:09 10° SSW
Cosmos 389 Rocket 3.3 06:52:13 10° SW 06:55:33 32° WNW 06:58:54 10° N
Cosmos 2026 Rocket 4.2 06:50:09 10° N 06:56:14 77° E 07:02:18 10° SSE
